Thermal, CA

10:32 AM PDT on June 22, 2018 (GMT -0700)
Desert Resorts Regional

Weather History for KTRM - October, 2017

Change the Weather History Date:

Monday, October 9, 2017

  Actual Average Record
Temperature  
Mean Temperature 72 °F 75 °F  
Max Temperature 87 °F 93 °F 107 °F (1991)
Min Temperature 56 °F 58 °F 46 °F (2007)
Degree Days  
Heating Degree Days 0 0  
Month to date heating degree days 0 0  
Since 1 July heating degree days 0 0  
Cooling Degree Days 7 10  
Month to date cooling degree days 103 107  
Year to date cooling degree days 4167 3505  
Growing Degree Days 27 (Base 50)    
Moisture  
Dew Point 18 °F    
Average Humidity 22    
Maximum Humidity 39    
Minimum Humidity 4    
Precipitation  
Precipitation 0.00 in 0.01 in 0.22 in (1986)
Month to date precipitation 0.00 0.07  
Year to date precipitation 3.36 2.46  
Sea Level Pressure  
Sea Level Pressure 29.90 in    
Wind  
Wind Speed 11 mph (NW)    
Max Wind Speed 23 mph    
Max Gust Speed 32 mph    
Visibility 10 miles    
Events      
T = Trace of Precipitation, MM = Missing Value Source: NWS Daily Summary

Daily Weather History Graph

Daily Weather History Graph

Search for Another Location

Airport or City:

Astronomy

Oct. 09, 2017 Rise Set
Actual Time 6:45 AM PDT 6:17 PM PDT
Civil Twilight 6:20 AM PDT 6:42 PM PDT
Nautical Twilight 5:51 AM PDT 7:11 PM PDT
Astronomical Twilight 5:22 AM PDT 7:40 PM PDT
Moon 9:41 PM PDT (10/9) 10:51 AM PDT (10/9)
Length of Visible Light 12h 22m
Length of Day
11h 32m
Waning Gibbous, 80% of the Moon is Illuminated
Oct 9
Waning Gibbous
Oct 12
Last Quarter
Oct 19
New
Oct 27
First Quarter
Nov 3
Full

Hourly Weather History & Observations

Time (PDT) Temp. Dew Point Humidity Pressure Visibility Wind Dir Wind Speed Gust Speed Precip Events Conditions
12:52 AM 77.0 °F 50.0 °F 39% 29.65 in 10.0 mi NW 11.5 mph - N/A   Clear
1:52 AM 79.0 °F 46.0 °F 31% 29.70 in 10.0 mi NW 16.1 mph 21.9 mph N/A   Clear
2:52 AM 79.0 °F 36.0 °F 21% 29.75 in 10.0 mi NW 17.3 mph 23.0 mph N/A   Clear
3:52 AM 79.0 °F 19.9 °F 11% 29.81 in 10.0 mi NW 13.8 mph - N/A   Clear
4:52 AM 75.9 °F 19.0 °F 12% 29.82 in 10.0 mi NW 9.2 mph - N/A   Clear
5:52 AM 73.9 °F 16.0 °F 11% 29.87 in 10.0 mi NNW 12.7 mph - N/A   Clear
6:52 AM 73.9 °F 12.9 °F 10% 29.91 in 8.0 mi NW 10.4 mph - N/A   Clear
7:52 AM 75.0 °F 15.1 °F 10% 29.95 in 10.0 mi WNW 12.7 mph - N/A   Clear
8:52 AM 77.0 °F 12.9 °F 9% 29.97 in 10.0 mi NW 12.7 mph 23.0 mph N/A   Clear
9:52 AM 80.1 °F 12.9 °F 8% 29.99 in 4.0 mi NNW 18.4 mph 32.2 mph N/A   Haze
10:52 AM 82.0 °F 12.0 °F 7% 30.00 in 10.0 mi NNW 17.3 mph - N/A   Clear
11:52 AM 84.0 °F 14.0 °F 7% 29.99 in 10.0 mi NW 15.0 mph 23.0 mph N/A   Clear
12:52 PM 86.0 °F 10.0 °F 6% 29.97 in 10.0 mi NNW 16.1 mph 27.6 mph N/A   Clear
1:02 PM 86.0 °F 7.0 °F 5% 29.96 in 10.0 mi NNE 11.5 mph - N/A   Clear
1:52 PM 86.0 °F 3.9 °F 4% 29.94 in 10.0 mi NNW 10.4 mph 17.3 mph N/A   Clear
2:52 PM 86.0 °F 7.0 °F 5% 29.93 in 10.0 mi NW 9.2 mph 19.6 mph N/A   Clear
3:52 PM 86.0 °F 9.0 °F 5% 29.92 in 10.0 mi West 11.5 mph - N/A   Clear
4:52 PM 86.0 °F 10.0 °F 6% 29.92 in 10.0 mi NNW 8.1 mph - N/A   Clear
5:52 PM 82.9 °F 16.0 °F 8% 29.91 in 10.0 mi NW 6.9 mph - N/A   Clear
6:52 PM 75.9 °F 19.0 °F 12% 29.92 in 10.0 mi WNW 8.1 mph - N/A   Clear
7:52 PM 73.9 °F 19.0 °F 13% 29.93 in 10.0 mi NW 9.2 mph - N/A   Clear
8:52 PM 69.1 °F 24.1 °F 18% 29.94 in 10.0 mi North 5.8 mph - N/A   Clear
9:52 PM 69.1 °F 21.9 °F 17% 29.95 in 10.0 mi North 6.9 mph - N/A   Clear
10:52 PM 68.0 °F 21.0 °F 17% 29.96 in 10.0 mi NNW 4.6 mph - N/A   Clear
11:52 PM 57.0 °F 27.0 °F 32% 29.95 in 10.0 mi NNW 4.6 mph - N/A   Clear